Dewpoint
26 15 9 11 16 16 16 16 16 19 24 24 26 27 30 32 29 29 30 33 34 34 35 37 37 39 41 43 45 55 57 58 58 58 57 57 57 57 57 58 57 56 56 55
18 13 13 19 20 18 19 16 16 20 23 23 27 26 30 31 26 27 29 31 32 33 34 35 36 37 38 40 41 47 53 57 57 57 57 57 57 57 57 57 57 57 56 55
16 15 19 17 16 14 18 15 16 17 25 25 25 22 26 28 25 23 25 26 30 32 33 33 35 36 37 37 38 43 46 48 51 57 57 57 57 57 56 55 55 55 55 56
17 16 17 14 11 17 13 20 21 21 23 19 23 18 18 25 25 21 20 22 24 29 31 30 33 34 35 36 37 39 42 43 45 47 54 54 53 53 53 54 54 53 53 52
11 14 13 12 10 17 15 23 21 22 22 22 20 18 17 23 23 21 18 18 20 22 24 26 29 32 34 34 36 37 38 40 40 42 45 51 52 52 53 53 52 52 51 50
17 20 19 11 15 17 22 22 24 25 22 19 19 19 15 21 23 21 17 16 17 18 20 21 20 25 31 32 33 33 34 35 37 38 39 42 42 44 47 50 50 51 51 51
17 19 16 17 12 19 23 22 19 18 21 17 19 19 17 25 22 19 17 16 17 18 17 20 19 19 20 24 27 29 29 31 32 33 34 36 39 39 39 41 43 43 46 47
16 16 15 14 14 12 19 19 18 9 15 12 15 16 21 25 21 20 18 17 17 17 17 18 19 18 19 20 21 22 25 26 26 28 30 31 33 35 36 36 38 38 38 40
12 12 17 15 15 17 15 15 17 13 17 15 17 21 24 22 21 19 17 16 16 16 16 17 17 17 17 18 19 21 22 24 24 24 25 25 27 28 30 31 33 34 35 34
14 12 15 17 16 17 18 16 15 20 12 11 14 17 22 21 21 20 17 15 15 15 15 16 16 16 17 17 18 19 20 20 22 22 22 22 24 26 27 28 28 29 30 31
16 13 13 15 14 12 14 16 15 16 15 11 9 14 24 25 23 21 18 15 14 14 14 15 15 15 16 16 17 17 18 19 20 21 20 21 21 21 23 24 26 26 28 28
16 14 11 11 14 13 12 14 13 15 12 15 11 14 27 26 24 22 17 14 14 14 14 15 15 15 15 16 16 16 17 17 18 20 19 19 19 20 20 21 23 24 24 25
15 13 11 13 19 18 14 16 16 16 19 14 14 17 25 24 21 19 15 13 13 14 14 15 15 15 15 15 16 15 15 16 17 19 18 17 17 18 19 20 21 23 24 24
23 14 10 10 14 19 17 18 18 18 23 19 16 15 23 23 21 17 14 13 13 14 14 15 15 15 15 15 15 15 15 15 17 17 18 16 16 17 17 19 20 21 21 22
17 14 15 15 16 17 16 17 18 18 18 20 22 21 20 24 22 18 14 13 12 13 14 14 14 15 15 15 14 14 14 14 16 14 18 16 16 16 16 18 18 19 19 19
23 16 20 19 20 20 21 23 24 23 23 21 22 24 24 24 21 15 13 12 12 13 14 14 14 15 15 15 14 12 12 12 14 13 17 15 14 15 16 17 17 17 17 18
21 21 21 16 25 25 20 22 23 24 26 26 26 26 19 18 17 15 13 13 13 13 14 14 14 14 13 14 12 8 10 10 11 12 12 12 14 14 15 15 16 16 16 17
20 22 24 21 23 17 21 24 26 26 23 21 17 17 18 18 16 15 15 14 13 14 14 14 14 12 10 11 8 8 9 10 11 12 12 12 13 13 14 14 14 16 16 17
21 22 23 21 22 21 23 23 24 22 22 20 17 16 15 15 14 13 14 14 14 14 14 14 11 9 9 9 9 9 9 10 10 11 11 12 12 13 13 13 14 16 16 17
25 23 21 25 22 19 21 22 21 22 18 19 17 16 14 15 14 15 14 14 14 12 10 9 8 8 8 10 10 10 10 10 10 11 12 12 12 12 11 13 14 16 17 17
23 25 23 22 25 24 24 20 22 16 18 16 17 16 16 15 15 15 15 12 10 9 8 9 8 8 9 11 10 10 10 10 11 11 12 11 11 11 11 12 14 16 16 15
22 23 23 26 23 19 20 21 20 20 16 16 15 15 15 15 14 13 11 10 9 8 8 9 9 9 11 12 10 10 10 10 11 11 11 10 10 10 10 12 15 16 15 15
24 25 25 25 23 19 18 18 18 17 16 16 16 16 15 15 15 12 10 9 8 7 8 10 9 10 11 10 10 10 9 10 10 10 10 10 10 11 12 14 14 14 14 15
25 25 29 29 23 19 19 22 21 17 16 19 20 20 20 16 10 10 10 8 8 8 8 9 10 8 8 9 9 10 10 10 10 10 10 11 12 12 13 13 14 15 14 13
27 28 29 29 21 21 22 21 23 22 22 21 19 16 13 11 10 10 8 8 8 8 9 10 8 8 8 9 9 9 9 10 10 10 12 12 11 12 13 13 14 14 15 17
24 28 28 30 23 25 22 24 24 21 21 21 19 15 10 10 8 8 8 8 8 10 9 8 9 8 8 9 9 9 9 9 10 11 11 10 11 11 13 12 12 16 19 20
Lifted_Index
10 9 8 9 9 9 8 7 7 7 8 8 7 7 7 8 8 8 7 6 6 6 5 4 2 2 1 1 1 -0 -1 -2 -2 -1 -0 1 0 -0 -0 1 2 3 3 3
9 9 9 9 10 9 9 8 7 8 8 7 7 7 7 7 8 9 8 6 6 6 5 4 3 2 2 1 1 0 -1 -1 -1 -1 0 1 1 1 0 1 2 3 3 3
9 9 9 9 9 9 9 8 8 8 7 7 6 6 6 7 8 9 8 7 6 6 5 5 4 3 3 2 1 1 0 -1 -1 -0 0 1 2 2 2 2 3 3 4 4
9 9 9 8 8 8 8 8 8 8 7 6 6 5 5 7 8 8 8 8 7 6 6 5 5 5 4 4 3 1 1 0 -0 1 1 2 3 3 3 4 4 4 4 4
9 9 9 8 8 8 8 8 8 8 7 6 5 4 5 6 7 7 8 8 8 7 7 6 6 6 6 5 4 3 2 1 1 2 3 3 4 5 5 5 5 5 6 6
9 9 9 8 8 8 8 8 7 6 5 4 4 4 4 5 6 7 8 8 9 8 8 8 8 7 7 7 6 5 4 3 3 4 4 4 5 5 6 6 7 7 7 7
7 8 8 9 8 8 7 6 4 3 2 3 4 4 4 5 6 7 8 9 9 10 10 10 9 9 9 9 8 7 6 6 6 5 5 5 5 6 6 7 8 8 8 8
5 6 8 9 8 7 6 5 3 2 1 2 3 3 4 5 6 7 8 9 9 10 10 11 11 11 11 11 11 10 10 10 9 8 8 7 7 7 7 7 8 8 8 8
5 5 7 9 8 7 6 5 4 3 2 2 2 3 3 5 6 6 7 8 9 10 11 11 12 12 13 13 13 13 13 13 12 12 12 11 10 10 10 9 9 9 8 8
6 6 6 8 8 7 6 5 5 4 2 1 2 2 3 4 5 6 7 8 9 10 10 11 12 13 13 14 14 14 14 14 14 15 15 15 14 14 14 14 13 12 11 11
8 6 5 6 6 6 6 5 4 4 3 2 2 2 3 4 4 5 6 7 9 9 10 11 12 13 13 14 14 15 15 15 15 15 16 16 16 17 17 17 16 16 16 15
9 7 5 5 6 6 5 5 4 4 3 3 2 3 4 5 5 5 6 7 8 9 10 11 12 12 13 13 14 14 15 15 15 16 17 17 17 18 18 18 18 18 18 18
8 6 4 4 5 6 5 4 4 4 4 3 2 3 4 5 5 5 6 7 8 9 10 11 12 12 13 14 14 15 15 16 17 17 17 18 18 18 18 19 19 19 19 19
7 5 4 3 4 4 4 3 4 4 3 3 2 3 4 5 5 6 6 7 8 9 10 11 12 13 14 15 16 16 17 17 18 18 18 19 19 20 20 20 20 20 20 20
6 5 4 3 4 4 3 3 3 3 3 3 3 3 4 5 5 6 7 7 8 9 10 11 12 13 15 15 16 17 18 19 20 20 20 20 21 21 21 21 21 21 21 21
5 4 3 3 3 4 3 3 3 3 3 4 4 4 5 5 5 6 7 7 8 9 11 12 13 14 15 16 17 18 19 20 21 21 21 21 21 22 22 22 22 21 21 21
4 4 3 3 3 3 3 3 4 4 4 4 4 5 5 6 6 7 8 8 9 10 12 13 14 15 16 18 19 20 21 22 22 22 22 22 22 22 22 22 22 22 22 22
3 3 3 3 3 3 3 4 4 4 4 5 5 5 6 6 7 8 9 10 10 12 13 14 15 17 18 19 20 20 21 22 22 22 22 22 22 22 22 22 22 22 22 22
3 3 3 2 2 3 3 4 5 5 5 5 6 6 6 7 7 8 10 11 12 13 14 15 17 18 19 19 20 20 21 21 21 21 22 22 22 22 22 22 23 23 23 23
3 3 2 2 2 2 3 5 5 5 5 6 6 7 7 7 7 9 11 12 13 14 15 17 18 19 19 20 20 20 21 21 21 21 22 22 22 23 23 23 23 23 23 23
2 2 1 1 1 2 4 5 5 5 5 6 7 7 8 8 9 10 12 13 14 15 16 18 18 19 20 21 21 21 21 21 21 22 22 22 23 23 23 23 23 23 23 22
1 1 1 1 1 2 4 5 5 5 6 7 8 8 9 9 10 12 13 14 15 16 18 19 19 19 20 21 21 21 21 21 22 22 22 22 22 22 22 22 22 21 21 21
2 2 1 2 2 3 4 5 5 5 6 7 9 10 10 11 12 13 14 15 16 17 18 19 19 19 20 21 21 21 21 21 21 21 21 21 21 21 21 20 20 19 18 18
2 2 2 2 3 4 5 5 6 6 7 9 10 11 12 12 13 14 15 16 17 18 19 19 19 19 20 20 21 21 21 21 20 20 19 19 18 18 18 17 17 16 15 15
3 3 3 3 3 4 5 6 6 7 9 11 12 13 13 14 14 15 16 17 18 19 19 19 19 19 19 20 20 20 20 20 19 18 17 16 15 15 14 14 14 14 14 14
3 3 3 3 4 5 6 6 7 8 10 12 13 13 14 15 15 16 17 18 18 19 19 19 19 19 19 19 19 19 19 19 17 16 15 14 13 13 12 12 13 13 14 15